User: anonymous   Login
Location: Unspecified
(0.0000°N, 0.0000°E)
Time: 03:16:30
(UTC+01:00)
Language:

ARIANE 5 R/B - Orbit

View from above orbital plane
View from above orbital plane
View from above satellite
View from above satellite

Ground track
Ground track

The orbit data is extracted from the following two-line orbital elements,

1 28787U 05028B   18052.75462688 -.00000194 +00000-0 -34341-3 0  9993
2 28787 007.0509 305.7671 7172388 023.7305 228.3116 02.26573968103746
Epoch (UTC): 21 February 2018 18:06:39
Eccentricity: 0.7172388
inclination: 7.0509°
perigee height: 546 km
apogee height: 35671 km
right ascension of ascending node: 305.7671°
argument of perigee: 23.7305°
revolutions per day: 2.26573968
mean anomaly at epoch: 228.3116°
orbit number at epoch: 10374

The dashed part of the orbit path shows where the satellite is in the earth's shadow,  

DLR